Location: Chassagnes
(44.4047°N, 4.1657°E)
Time: 12:25:53
(UTC+00:00)

SeaSat 1 - Pass Details

Date: 27 October 2020
Orbit: 744 x 747 km, 108.0° (Epoch: 23 November)

Event Time Altitude Azimuth Distance (km) Brightness Sun altitude
Exits shadow 19:26:16 53° 308° (NW) 914 3.0 -30.3°
Drops below altitude 10° 19:30:08 10° 329° (NNW) 2,272 5.4 -31.0°
Sets 19:32:25 0° 332° (NNW) 3,201 6.2 -31.4°
